COSMOS 489

Satellite information

Favourite Embed

Satellite Type and Status

PAYLOADIN ORBIT

Key statistics

Satellite COSMOS 489 at a glance.

Uptime

19361

Days in orbit

Revolutions

≈ 13.8

Per day

Orbit

LEO

Low Earth Orbit

Inclination

74.0

Latest

Satellite identification and parameters

Extended collection of information and parameters for COSMOS 489.

Object identification

Identified? True

Debris? False

Object name: COSMOS 489

International designator: 1972-035A

Object number (NORAD): 6019

Object ID (CCSDS): 6019

Country: COMMONWEALTH OF INDEPENDENT STATES (CIS)

Current information (Y/N): Y

RCS size: LARGE

Orbital parameters

Period: 104.643 minutes

Inclination: 74.019 deg

SMA: 7355.84 km

Apoapsis: 996.064 km

Periapsis: 959.345 km

RAAN: 280.691 deg

Eccentricy: 0.0024959

Argument of periapsis: 305.789 deg

Mean anomaly: 161.7472 deg

Mean motion: 13.76113838 rev/day

Mean motion (dot): 0.00000034 rev/day2

B* drag term: 0.000058597 1/REarth

Two-line elements (TLE)

Creation date: May 8, 2025, 3:01 a.m.

Reference frame: TEME

Reference center: EARTH

Epoch: May 7, 2025, 8:38 p.m. UTC

TLE line 0: 0 COSMOS 489

TLE line 1: 1 06019U 72035A 25127.86001339 .00000034 00000-0 58597-4 0 9995

TLE line 2: 2 06019 74.0190 280.6910 0024959 305.7890 161.7472 13.76113838661121

Live tracking on map

Real-time ground track for satellite COSMOS 489.

In-orbit conjunctions

A list of the most updated potential collisions computed for object COSMOS 489.

Target Orbit TCA Probability of collision Miss distance Type
THORAD AGENA D DEB SSO 2025-04-27 20:43:54 0.0001157106 482.0 (m) DEBRIS
THORAD AGENA D DEB SSO 2025-01-19 14:40:57 0.0001690241 103.0 (m) DEBRIS
NIMBUS 2 DEB SSO 2024-10-05 03:57:42 0.0001117436 504.0 (m) DEBRIS
FENGYUN 1C DEB SSO 2024-09-20 17:55:13 0.0002175106 406.0 (m) DEBRIS
NADEZHDA 5 LEO 2024-06-05 17:03:03 0.00052135 53.0 (m) PAYLOAD

Associated space launch

The first soviet navigation system called Tsiklon consisted of Zaliv satellites in low earth orbit.

COSMOS 489 was lifted into orbit during the mission ‘Kosmos-3M | Zaliv 11’, on board a Kosmos-3M space rocket.

The launch took place on May 6, 1972, 11:24 a.m. from 132/1 (132L).

For more information about the launch, click the button.

Launch to space Kosmos-3M | Zaliv 11
Kosmos-3M | Zaliv 11

Agency: N/A

Status: Launch Successful

Launch date: May 6, 1972, 11:24 a.m. UTC

Rocket: Kosmos-3M

Launch pad: 132/1 (132L)

Location: Plesetsk Cosmodrome, Russian Federation

...

Latest news about this satellite

There are no fresh news available about this satellite. Check back as we update our databases every day.


Newsletter sign-up

Weekly statistics, charts and insights to help you stay on top of the space industry.